Regional Weather Roundup
Issued by NWS

Home | Current Version | Previous Version | Graphics & Text | Print | Product List | Glossary On
Versions: 1 2 3 4 5 6 7 8 9 10 11 12 13 14 15 16 17 18 19 20 21 22 23 24 25 26 27 28 29 30 31 32 33 34 35 36 37 38 39 40 41 42 43 44 45 46 47 48 49 50
000
ASUS43 KLOT 262310
RWRIL

ILLINOIS REGIONAL WEATHER ROUNDUP
NATIONAL WEATHER SERVICE CHICAGO/ROMEOVILLE IL
500 PM CST WED NOV 26 2014

NOTE: "FAIR" INDICATES FEW OR NO CLOUDS BELOW 12,000 FEET WITH NO
SIGNIFICANT WEATHER AND/OR OBSTRUCTIONS TO VISIBILITY.

* THESE STATIONS ARE NOT UNDER NWS QUALITY CONTROL. THEY ALSO MAY NOT
  REPORT WEATHER SUCH AS PRECIPITATION OR FOG.

ILZ001-002-007-009-015-016-024-270000-
NORTHWEST ILLINOIS

CITY           SKY/WX    TMP DP  RH WIND       PRES   REMARKS
MOLINE         CLOUDY    29  23  78 E10       30.11R WCI  20
STERLING*      CLOUDY    27  19  74 NE9       30.13R WCI  17
SAVANNA*       CLOUDY    28  22  79 NE8       30.14S WCI  20
$$

ILZ003-004-008-010-011-017-018-270000-
NORTH CENTRAL ILLINOIS

CITY           SKY/WX    TMP DP  RH WIND       PRES   REMARKS
ROCKFORD       CLOUDY    27  18  69 NE6       30.15S WCI  20
FREEPORT*      CLOUDY    25  19  79 N9        30.16R WCI  15
ROCHELLE*      CLOUDY    24  20  83 N3        30.13S
DE KALB*       CLOUDY    22  18  85 CALM      30.12S
PERU*          CLOUDY    28  23  82 E9        30.11S WCI  19
$$

ILZ005-006-012>014-019>023-270000-
NORTHEAST ILLINOIS

CITY           SKY/WX    TMP DP  RH WIND       PRES   REMARKS
CHICAGO-OHARE  CLOUDY    28  21  75 E5        30.11S WCI  23
CHICAGO-MIDWAY CLOUDY    29  20  69 E6        30.12F WCI  23
AURORA         MOCLDY    24  17  74 NE3       30.12S
LANSING*       CLOUDY    27  20  73 NE3       30.12S
JOLIET*        CLOUDY    26  19  76 NE3       30.12S
WAUKEGAN       CLOUDY    28  23  81 VRB5      30.12S WCI  23
DUPAGE AIRPORT MOCLDY    26  19  74 E3        30.11S
KANKAKEE*      CLOUDY   N/A N/A N/A NE6       30.11S
WHEELING       CLOUDY    29  22  75 CALM      30.14S
MORRIS*        CLOUDY    27  22  83 E3        30.12R
ROMEOVILLE*    CLOUDY    26  20  77 NE7       30.12S WCI  19
NORTHERLY ISL    N/A     29  22  75 N6          N/A  WCI  23
$$

LMZ740>746-270000-
SOUTHERN LAKE MICHIGAN

STATION/POSITION SKY/WX   TEMP    WIND        PRES    VSBY  WAVE
                          AIR SEA DIR/SP/G                  HT/PER
                          (F)     (DEG/KT/KT) (MB)    (MI)  (FT/S)
SOUTHERN BUOY              32 42  100/  4/  6 1021.0F         1/ 3
WAUKEGAN HARBOR            29     330/  8/ 10   N/A
HARRISON CRIB              28      90/  7/  9   N/A
BURNHAM HARBOR             28      90/  2/  5   N/A
CALUMET HARBOR             28      CALM  /  3 1018.8S
MICHIGAN CITY              27      70/  5/  6   N/A
$$

ILZ025>027-034>036-040-047-049-050-058-095>099-270000-
WEST-CENTRAL ILLINOIS

CITY           SKY/WX    TMP DP  RH WIND       PRES   REMARKS
QUINCY         CLOUDY    32  30  92 E9        30.02R FOG     WCI  24
GALESBURG*     CLOUDY    29  26  89 NE8       30.08R WCI  21
MACOMB*        LGT SNOW  30  30 100 E9        30.08R VSB 1   WCI  21
JACKSONVILLE*  LGT SNOW  33  32  95 E10       30.04R WCI  25
PITTSFIELD*    CLOUDY    33  32  96 E6        30.03S WCI  28
$$

ILZ028>032-037-038-041>044-048-051>054-059>061-270000-
CENTRAL ILLINOIS

CITY           SKY/WX    TMP DP  RH WIND       PRES   REMARKS
PONTIAC        CLOUDY    29  25  84 E7        30.11R WCI  22
BLOOMINGTON    CLOUDY    28  24  85 E10       30.08S WCI  19
DECATUR        LGT SNOW  29  26  89 E12       30.06R FOG     WCI  19
PEORIA         CLOUDY    30  24  78 E13       30.07R WCI  20
LACON*         CLOUDY    27  22  82 NE7       30.10S WCI  20
LINCOLN*       LGT SNOW  31  28  92 E7        30.08R WCI  24
SPRINGFIELD    LGT SNOW  31  29  92 E9        30.05R VSB 1   WCI  23
TAYLORVILLE    LGT SNOW  30  28  93 E10       30.05R WCI  21
$$

ILZ033-039-045-046-055>057-062-063-270000-
EAST-CENTRAL ILLINOIS

CITY           SKY/WX    TMP DP  RH WIND       PRES   REMARKS
CHAMPAIGN      CLOUDY    29  24  82 NE6       30.07S WCI  23
DANVILLE*      CLOUDY    30  25  80 NE6       30.05R WCI  24
RANTOUL*       CLOUDY    31  26  80 NE6       30.08R WCI  25
MATTOON        CLOUDY    30  24  78 N5        30.05S WCI  25
PARIS*         CLOUDY    32  27  80 CALM      30.07S
$$

ILZ079-100>102-270000-
SOUTHWEST ILLINOIS

CITY           SKY/WX    TMP DP  RH WIND       PRES   REMARKS
ALTON          LGT SNOW  32  32 100 CALM      30.03R
BELLEVILLE     LGT SNOW  32  32 100 E5        30.03R FOG     WCI  27
CAHOKIA*       CLOUDY    34  33  96 CALM      30.04R FOG
SPARTA*        LGT SNOW  32  32  99 CALM      30.03S
$$

ILZ064>066-069>071-074>076-080>082-084>086-088>090-092>094-270000-
SOUTH-CENTRAL ILLINOIS

CITY           SKY/WX    TMP DP  RH WIND       PRES   REMARKS
CARBONDALE     SNOW      32  31  96 CALM      30.03S VSB 1/2
CAIRO*         DRIZZLE   41  36  84 SW5       30.03R
EFFINGHAM*     LGT SNOW  31  29  90 E6        30.05S VSB 1   WCI  26
MARION         LGT SNOW  34  32  93 CALM      30.03S VSB 1
MT. VERNON     CLOUDY    32  28  86 CALM      30.04R VSB 1/2
CENTRALIA*     LGT SNOW  32  31  96 CALM      30.04R
SALEM*         SNOW      34  32  93 CALM      30.05R VSB 1/2
METROPOLIS*    RAIN      39  39 100 S5          N/A
$$

ILZ067-068-072-073-078-083-087-091-270000-
SOUTHEAST ILLINOIS

CITY           SKY/WX    TMP DP  RH WIND       PRES   REMARKS
LAWRENCEVILLE  CLOUDY    36  29  75 N8        30.05S WCI  30
FLORA*         LGT SNOW  32  32  99 NE6       30.05R WCI  27
FAIRFIELD*     LGT SNOW  34  32  93 CALM      30.04R
HARRISBURG*    LGT SNOW  33  33 100 CALM      30.04S VSB 1
ROBINSON*      CLOUDY    34  28  77 N5        30.06S WCI  30
CARMI*         RAIN      37  35  92 E5        30.04R WCI  33
$$

ABBREVIATIONS USED IN REMARKS
   TC - TEMPERATURE IN CELSIUS
  WCI - WIND CHILL INDEX
   HX - HEAT INDEX
  VSB - VISIBILITY
$$




USA.gov is the U.S. government's official web portal to all federal, state and local government web resources and services.